Regional Weather Roundup
Issued by NWS Kansas City/Pleasant Hill, MO

Home | Current Version | Previous Version | Text Only | Print | Product List | Glossary Off
Versions: 1 2 3 4 5 6 7 8 9 10 11 12 13 14 15 16 17 18 19 20 21 22 23 24 25 26 27

000
ASUS43 KEAX 031410
RWREAX

WEATHER ROUNDUP FOR EASTERN KANSAS AND NORTHWEST MISSOURI
NATIONAL WEATHER SERVICE KANSAS CITY/PLEASANT HILL MO
800 AM CST SAT DEC 03 2016

KSZ040-057-103>105-MOZ028-029-037-043-031500-
...KANSAS CITY METROPOLITAN AREA...

CITY           SKY/WX    TMP DP  RH WIND       PRES   REMARKS
K.C. INTL      CLOUDY    33  27  78 E3        30.29R
K.C. DOWNTOWN  CLOUDY    34  30  85 NE5       30.30S WCI  30
LEES SUMMIT    CLOUDY    34  28  79 E8        30.29R WCI  27
OLATHE - IXD   CLOUDY    36  29  75 E6        30.29R WCI  31
OLATHE - OJC   CLOUDY    35  28  75 E7        30.29R WCI  29
LAWRENCE       CLOUDY    34  30  85 E7        30.29S WCI  28

$$

MOZ001>008-011>017-020>025-030>033-038>040-044>046-053-054-031500-
...NORTHERN AND CENTRAL MISSOURI...

CITY           SKY/WX    TMP DP  RH WIND       PRES   REMARKS
ST. JOSEPH     PTCLDY    25  23  92 CALM      30.30F
MOSBY          CLOUDY    28  28 100 CALM      30.30F
WARRENSBURG    CLOUDY    32  28  86 CALM      30.32R
WHITEMAN AFB   CLOUDY    32  31  98 SE3       30.31R
CLINTON        CLOUDY    34  28  80 CALM      30.31R
SEDALIA        NOT AVBL
WARSAW         NOT AVBL
CHILLICOTHE      N/A     26  25  96 CALM      30.33S
KIRKSVILLE     MOCLDY    29  27  92 E3        30.33R

$$

MOZ041-047>049-056>058-063>065-088>090-097-031500-
...EASTERN AND SOUTHERN MISSOURI...

CITY           SKY/WX    TMP DP  RH WIND       PRES   REMARKS
ST. LOUIS INTL MOCLDY    33  29  85 SE5       30.35F WCI  29
SPIRIT OF STL  PTCLDY    28  28 100 CALM      30.35F
COLUMBIA       PTCLDY    32  28  85 E7        30.33R WCI  26
JEFFERSON CITY CLOUDY    29  27  92 CALM      30.34R
ROLLA          PTCLDY    31  28  89 E5        30.30R WCI  26
OSAGE BEACH    PTCLDY    35  27  72 E3        30.32R
SPRINGFIELD    CLOUDY    44  30  57 SE10      30.26R
BRANSON        CLOUDY    41  32  70 SE9       30.27R
JOPLIN         CLOUDY    44  32  62 E8        30.23F
WEST PLAINS    CLOUDY    38  31  76 E6        30.31R WCI  33

$$

IAZ060-094-KSZ022-034>040-054-083-096-NEZ052-066-093-031500-
...KANSAS...SOUTHEAST NEBRASKA AND IOWA...

CITY           SKY/WX    TMP DP  RH WIND       PRES   REMARKS
TOPEKA         CLOUDY    33  29  85 N3        30.28F
MANHATTAN      CLOUDY    32  28  85 NE5       30.26F WCI  27
EMPORIA        CLOUDY    37  28  70 E9        30.23F WCI  30
CHANUTE        PTCLDY    42  28  57 E9        30.22F
WICHITA        CLOUDY    41  31  67 E6        30.20R
OMAHA          CLOUDY    25  20  81 CALM      30.28F FOG
LINCOLN        PTCLDY    25  22  88 CALM      30.27F
FALLS CITY       N/A    N/A N/A N/A MISG      30.28F
LAMONI         CLEAR     24  22  91 NE5       30.30F WCI  18
DES MOINES     MOCLDY    36  28  73 S5        30.31F WCI  32

$$





USA.gov is the U.S. government's official web portal to all federal, state and local government web resources and services.